Regional Weather Roundup
Issued by NWS Northern Indiana

Home | Current Version | Previous Version | Text Only | Print | Product List | Glossary Off
Versions: 1 2 3 4 5 6 7 8 9 10 11 12 13 14 15 16 17 18 19 20 21 22 23 24 25 26 27 28 29 30 31 32 33 34 35 36 37 38 39 40 41 42 43 44 45 46 47 48 49 50

000
ASUS43 KIWX 280010
RWRIWX

KIWX WEATHER ROUNDUP
NATIONAL WEATHER SERVICE NORTHERN INDIANA
700 PM EST TUE JAN 27 2015

NOTE: "FAIR" INDICATES FEW OR NO CLOUDS BELOW 12,000 FEET WITH NO
SIGNIFICANT WEATHER AND/OR OBSTRUCTIONS TO VISIBILITY.

* THESE STATIONS ARE NOT UNDER NWS QUALITY CONTROL. THEY ALSO MAY NOT
  REPORT WEATHER SUCH AS PRECIPITATION OR FOG.

INZ001>027-280100-
NORTHERN INDIANA

CITY           SKY/WX    TMP DP  RH WIND       PRES   REMARKS
GARY*          MOCLDY    28  16  59 N12       30.24R WCI  18
VALPARAISO     CLEAR     24  15  68 N5        30.23R WCI  18
6HR MIN TEMP:  24; 6HR MAX TEMP:  31;

MICHIGAN CITY* CLEAR     25  10  54 N3        30.24R
LAPORTE*       MOCLDY    24  15  69 N6        30.22R WCI  16
6HR MIN TEMP:  24; 6HR MAX TEMP:  32;

KNOX*          CLEAR     22   4  45 N7        30.21R WCI  14
6HR MIN TEMP:  -9; 6HR MAX TEMP:  81;

SOUTH BEND     CLEAR     23  11  60 N6        30.22R WCI  16
6HR MIN TEMP:  22; 6HR MAX TEMP:  30;

ELKHART*       CLEAR     25   5  42 CALM      30.21R
GOSHEN         CLEAR     22  10  60 N6        30.19R WCI  14
6HR MIN TEMP:  22; 6HR MAX TEMP:  28;

MONTICELLO*    CLEAR     22  16  77 NW3       30.21R
6HR MIN TEMP:  22; 6HR MAX TEMP:  29;

LOGANSPORT*    CLEAR     19  16  86 CALM      30.21R
ROCHESTER*     CLEAR     27  14  59 CALM      30.21R
WARSAW*        CLEAR     23  10  58 CALM      30.19S
ANGOLA*        CLEAR     19  10  68 CALM      30.17R
FORT WAYNE     CLEAR     21  10  62 N5        30.20R WCI  15
6HR MIN TEMP:  20; 6HR MAX TEMP:  27;

HUNTINGTON*    CLEAR     20   6  53 CALM      30.19R
6HR MIN TEMP:  20; 6HR MAX TEMP:  25;

PERU/GRISSOM   CLEAR     23  12  64 NW1       30.19R
6HR MIN TEMP:  18; 6HR MAX TEMP:  26;

MARION*        CLEAR     21  14  73 NW3       30.19S
6HR MIN TEMP:  -2; 6HR MAX TEMP:  46;


$$
INZ028>050-280100-
CENTRAL INDIANA

CITY           SKY/WX    TMP DP  RH WIND       PRES   REMARKS
LAFAYETTE      CLEAR     24  14  65 W3        30.22R
6HR MIN TEMP:  24; 6HR MAX TEMP:  29;

KOKOMO*        CLEAR     21  10  63 W3        30.20R
MUNCIE*        CLEAR     20  11  68 CALM      30.18R
6HR MIN TEMP:  18; 6HR MAX TEMP:  26;

INDIANAPOLIS   CLEAR     23  12  62 N8        30.19R WCI  14
6HR MIN TEMP:  23; 6HR MAX TEMP:  29;


$$
MIZ043>046-050>051-056>058-064>065-071>073-077>080-280100-
SOUTHWEST LOWER MICHIGAN

CITY           SKY/WX    TMP DP  RH WIND       PRES   REMARKS
BATTLE CREEK   CLEAR     25  10  53 N5        30.20R WCI  19
BENTON HARBOR  CLEAR     22  13  68 CALM      30.23R
6HR MIN TEMP:  22; 6HR MAX TEMP:  27;

COLDWATER*     CLEAR     21  10  63 N3        30.19R
6HR MIN TEMP:  21; 6HR MAX TEMP:  26;

HILLSDALE*     CLEAR     19   9  66 CALM      30.16R
6HR MIN TEMP:  19; 6HR MAX TEMP:  25;

HOLLAND        CLEAR     25  12  58 CALM      30.24R
6HR MIN TEMP:  25; 6HR MAX TEMP:  29;

GRAND RAPIDS   CLEAR     23   5  46 CALM      30.22R
6HR MIN TEMP:  23; 6HR MAX TEMP:  29;

KALAMAZOO      CLEAR     21  10  62 N6        30.21R WCI  13
6HR MIN TEMP:  21; 6HR MAX TEMP:  28;

STURGIS*       CLEAR     21  10  63 CALM      30.19R
THREE RIVERS*  FAIR      24  10  56 CALM      30.21R
6HR MIN TEMP:  24; 6HR MAX TEMP:  27;


$$
OHZ001>008-015>018-024>025-280100-
NORTHWEST OHIO

CITY           SKY/WX    TMP DP  RH WIND       PRES   REMARKS
WAUSEON*       FAIR      21  12  68 N6        30.18R WCI  14
DEFIANCE       CLEAR     22   9  57 N5        30.20R WCI  16
6HR MIN TEMP:  22; 6HR MAX TEMP:  27;

FINDLAY        CLEAR     17   9  70 W5        30.16R WCI  10
6HR MIN TEMP:  16; 6HR MAX TEMP:  23;

TOLEDO EXPRESS CLEAR     22  12  65 N8        30.18R WCI  12
6HR MIN TEMP:  22; 6HR MAX TEMP:  26;

TOLEDO METCALF CLEAR     22  10  60 N5        30.19R WCI  16
6HR MIN TEMP:  22; 6HR MAX TEMP:  28;

LIMA           CLEAR     17  10  74 CALM      30.17R
6HR MIN TEMP:  15; 6HR MAX TEMP:  22;


$$
AND FOR LAKE MICHIGAN COASTAL AND OPEN LAKE BUOY OBSERVATIONS

STATION/POSITION TEMP    WIND        PRES    VSBY  WAVE
                 AIR SEA DIR/SP/G                  HT/PER
                 (F)     (DEG/KT/KT) (MB)    (MI)  (FT/S)
CALUMET HARBOR    27     340/  8/  9   N/A
MICHIGAN CITY     27     350/ 12/ 14   N/A
SAINT JOSEPH      26      10/  3/  9 1024.0S

$$
&&


USA.gov is the U.S. government's official web portal to all federal, state and local government web resources and services.